Flag for Austria Weather past 2 weeks in Ansfelden, Upper Austria, Austria

Now
74 °F

Overcast.


Feels Like: 77 °F
Forecast: 54 / 69 °F
Wind: N/A

Location: Linz / Hoersching-Flughafen

Current Time: May 29, 2015 at 5:00:55 PM

Latest Report: May 29, 2015 at 4:00 PM


Visibility: 22 mi

Pressure: 29.84 "Hg

Humidity: 40%

Dew point: 47 °F

Location of AnsfeldenLocation

Historic Weather in Ansfelden — Graph

°F

Ansfelden temperature yesterday

Maximum temperature yesterday: 67 °F (at 6:00 PM)
Minimum temperature yesterday: 45 °F (at 5:00 AM)
Average temperature yesterday: 58 °F

Past Weeks' High & Low Weather Summary

 TemperatureHumidityPressure
High74 °F (May 18, 6:00 PM)97% (May 18, 3:00 AM)30.28 "Hg (May 18, 3:00 AM)
Low45 °F (May 28, 5:00 AM)39% (May 29, 2:00 PM)29.71 "Hg (May 18, 8:00 PM)
Average55 °F80%30.04 "Hg
* Reported May 14 4:00 PM — May 29 4:00 PM, Ansfelden, Weather by CustomWeather, © 2015

Note: Actual official high and low records may vary slightly from our data, if they occured in-between our weather recording intervals... More about our weather records

Advertising

Ansfelden weather history for previous 24 hours

 ConditionsComfort  
Time TempWeatherWind HumidityBarometerVisibility
4:00 PM
Fri, May 29
74 °FOvercast.N/A40%29.84 "Hg22 mi
3:00 PMN/APassing clouds.17 mphN/AN/A2 mi
2:00 PM72 °FScattered clouds.N/A39%29.88 "Hg14 mi
1:00 PM70 °FScattered clouds.N/A44%29.91 "Hg19 mi
12:00 PM67 °FPassing clouds.N/A48%29.94 "Hg11 mi
11:00 AM65 °FPassing clouds.N/A54%29.97 "Hg11 mi
10:00 AM62 °FPassing clouds.N/A59%29.98 "Hg13 mi
9:00 AM57 °FScattered clouds.N/A73%30.00 "Hg10 mi
8:00 AM53 °FPartly sunny.N/A83%30.01 "Hg7 mi
7:00 AM49 °FOvercast.N/A93%30.01 "Hg6 mi
6:00 AM47 °FOvercast.N/A95%30.01 "Hg7 mi
5:00 AM47 °FPassing clouds.N/A96%30.01 "Hg6 mi
4:00 AMN/APassing clouds.36 mphN/AN/A1 mi
3:00 AM49 °FCool.N/A89%30.01 "Hg15 mi
2:00 AM49 °FPassing clouds.N/A89%30.01 "Hg17 mi
12:00 AM53 °FPassing clouds.N/A79%30.00 "Hg25 mi
11:00 PM
Thu, May 28
N/APassing clouds.13 mphN/AN/A2 mi
10:00 PM58 °FPassing clouds.N/A62%29.97 "Hg25 mi
9:00 PM62 °FPassing clouds.N/A46%29.96 "Hg28 mi
8:00 PM65 °FPassing clouds.N/A46%29.96 "Hg28 mi
7:00 PM67 °FPassing clouds.3 mph40%29.96 "Hg19 mi
6:00 PM67 °FScattered clouds.5 mph45%29.96 "Hg17 mi
5:00 PM67 °FScattered clouds.N/A44%29.98 "Hg22 mi
Weather by CustomWeather, © 2015

See weather overviewHow to use our weather pages